{"data":{"norad_id":43602,"intl_designator":"2018-067A","name":"BEIDOU-3 M12 (C26)","alt_names":[],"object_type":"PAYLOAD","status":"ACTIVE","operator":null,"country":"PRC","launch_date":"2018-08-24","launch_site_code":"XICLF","launch_vehicle":null,"mission":null,"orbit_class":"UNKNOWN","rcs_meters":null,"size_class":null,"mass_kg":null,"dimensions":null,"purposes":["nav"],"wikipedia_slug":null,"has_3d_model":false,"image_url":null,"decayed_at":null,"tle_current":{"epoch":"2026-09-19T22:49:04.056960Z","epoch_age_seconds":61880,"freshness":"FRESH","line1":"1 43602U 18067A   26262.95074140 -.00000029  00000+0  00000+0 0  9995","line2":"2 43602  54.1778 177.8282 0008956  37.1570 322.9275  1.86227644 54880","mean_motion":1.86227644,"eccentricity":0.0008956,"inclination_deg":54.1778,"raan_deg":177.8282,"arg_perigee_deg":37.157,"mean_anomaly_deg":322.9275,"bstar":0,"rev_number":5488,"period_min":773.24717698732,"perigee_km":21503.393744251,"apogee_km":21553.37990973,"semimajor_km":27906.523826991,"source":"CELESTRAK","updated_at":"2026-09-20T09:00:46.709176Z"}}}